Location: Waco, TX
(31.5480°N, 97.1670°W)
Time: 19:05:26
(UTC-06:00)

ISS - Pass Details

Date: 11 November 2017
Orbit: 402 x 407 km, 51.6° (Epoch: 21 November)

Event Time Altitude Azimuth Distance (km) Brightness Sun altitude
Rises 00:56:23 0° 234° (SW) 2,305 - -72.8°
Reaches altitude 10° 00:58:30 10° 240° (WSW) 1,448 - -72.5°
Maximum altitude 01:01:40 50° 317° (NW) 520 - -72.1°
Drops below altitude 10° 01:04:50 10° 34° (NE) 1,453 - -71.6°
Sets 01:06:58 0° 40° (NE) 2,313 - -71.3°
